Chapel Hill, NC

4:14 AM EDT on October 23, 2017 (GMT -0400)
Williams

Weather History for KIGX - March, 2013

Change the Weather History Date:

Friday, March 8, 2013

  Actual Average Record
Temperature  
Mean Temperature 44 °F -  
Max Temperature 55 °F 58 °F 85 °F (1974)
Min Temperature 33 °F 33 °F 18 °F (1960)
Degree Days  
Heating Degree Days 21    
Moisture  
Dew Point 22 °F    
Average Humidity 45    
Maximum Humidity 64    
Minimum Humidity 26    
Precipitation  
Precipitation 0.00 in - - ()
Sea Level Pressure  
Sea Level Pressure 30.23 in    
Wind  
Wind Speed 8 mph (NW)    
Max Wind Speed 15 mph    
Max Gust Speed 25 mph    
Visibility 10 miles    
Events      
Averages and records for this station are not official NWS values.
T = Trace of Precipitation, MM = Missing Value Source: NWS Daily Summary

Daily Weather History Graph

Daily Weather History Graph

Search for Another Location

Airport or City:

Trip Planner

Search our weather history database for the weather conditions in past years. The results will help you decide how hot, cold, wet, or windy it might be!

Date:

Astronomy

Mar. 08, 2013 Rise Set
Actual Time 6:36 AM EST 6:17 PM EST
Civil Twilight 6:11 AM EST 6:43 PM EST
Nautical Twilight 5:41 AM EST 7:13 PM EST
Astronomical Twilight 5:11 AM EST 7:42 PM EST
Moon 4:14 AM EST (3/8) 3:15 PM EST (3/8)
Length of Visible Light 12h 32m
Length of Day
11h 41m
Waning Crescent, 12% of the Moon is Illuminated
Mar 8
Waning Crescent
Mar 11
New
Mar 19
First Quarter
Mar 27
Full
Apr 3
Last Quarter

Hourly Weather History & Observations

Time (EST) Temp. Windchill Dew Point Humidity Pressure Visibility Wind Dir Wind Speed Gust Speed Precip Events Conditions
12:56 AM 35.1 °F 30.1 °F 21.9 °F 59% 30.24 in 10.0 mi WNW 5.8 mph - N/A   Clear
1:56 AM 34.0 °F 27.2 °F 23.0 °F 64% 30.23 in 10.0 mi WNW 8.1 mph - N/A   Clear
2:56 AM 33.1 °F 26.1 °F 21.9 °F 64% 30.21 in 10.0 mi WNW 8.1 mph - N/A   Clear
3:56 AM 34.0 °F 27.2 °F 23.0 °F 64% 30.21 in 10.0 mi WNW 8.1 mph - N/A   Clear
4:56 AM 34.0 °F 28.0 °F 23.0 °F 64% 30.21 in 10.0 mi WNW 6.9 mph - N/A   Clear
5:56 AM 34.0 °F 27.2 °F 23.0 °F 64% 30.23 in 10.0 mi WNW 8.1 mph - N/A   Clear
6:56 AM 34.0 °F 27.2 °F 23.0 °F 64% 30.25 in 10.0 mi WNW 8.1 mph - N/A   Clear
7:56 AM 37.9 °F 31.5 °F 24.1 °F 57% 30.25 in 10.0 mi West 9.2 mph - N/A   Clear
8:56 AM 43.0 °F 37.7 °F 25.0 °F 49% 30.27 in 10.0 mi NNW 9.2 mph 17.3 mph N/A   Clear
9:56 AM 46.0 °F 41.4 °F 23.0 °F 40% 30.26 in 10.0 mi NNW 9.2 mph 24.2 mph N/A   Clear
10:56 AM 48.0 °F - 21.9 °F 36% 30.25 in 10.0 mi NNW 11.5 mph 20.7 mph N/A   Clear
11:56 AM 50.0 °F - 19.9 °F 31% 30.23 in 10.0 mi WNW 15.0 mph 24.2 mph N/A   Clear
12:56 PM 51.1 °F - 19.9 °F 29% 30.21 in 10.0 mi NW 15.0 mph 25.3 mph N/A   Clear
1:56 PM 53.1 °F - 19.9 °F 27% 30.17 in 10.0 mi NNW 12.7 mph 24.2 mph N/A   Clear
2:56 PM 54.0 °F - 21.0 °F 28% 30.16 in 10.0 mi NNW 10.4 mph 19.6 mph N/A   Clear
3:56 PM 55.0 °F - 21.0 °F 27% 30.17 in 10.0 mi NW 15.0 mph 23.0 mph N/A   Clear
4:56 PM 54.0 °F - 19.9 °F 26% 30.18 in 10.0 mi WNW 15.0 mph 21.9 mph N/A   Clear
5:56 PM 52.0 °F - 19.9 °F 28% 30.20 in 10.0 mi NNW 13.8 mph 20.7 mph N/A   Clear
6:56 PM 48.0 °F - 21.0 °F 34% 30.21 in 10.0 mi NNW 4.6 mph - N/A   Clear
7:56 PM 46.9 °F - 21.0 °F 36% 30.22 in 10.0 mi NW 4.6 mph - N/A   Clear
8:56 PM 43.0 °F 40.3 °F 21.9 °F 43% 30.25 in 10.0 mi NW 4.6 mph - N/A   Clear
9:56 PM 43.0 °F 40.3 °F 23.0 °F 45% 30.27 in 10.0 mi NW 4.6 mph - N/A   Clear
10:56 PM 39.9 °F 36.7 °F 23.0 °F 51% 30.30 in 10.0 mi NW 4.6 mph - N/A   Clear
11:56 PM 41.0 °F 39.0 °F 23.0 °F 49% 30.29 in 10.0 mi Variable 3.5 mph - N/A   Clear